Location: Geyikbay?r?
(36.8756°N, 30.4583°E)
Time: 07:07:44
(UTC+00:00)

CZ-2C R/B - Pass Details

Date: 05 August 2024
Orbit: 703 x 904 km, 98.2° (Epoch: 10 September)

Event Time Altitude Azimuth Distance (km) Brightness Sun altitude
Rises 23:39:54 0° 16° (NNE) 3,163 7.3 -31.9°
Reaches altitude 10° 23:42:09 10° 19° (NNE) 2,260 6.3 -31.7°
Enters shadow 23:45:58 50° 47° (NE) 973 3.7 -31.4°
